FW0516 Weather Reports


time (UTC)temp
C
wind
direction
speed
KPH
gust
KPH
rain 1hr
cm
rain 24hr
cm
rain mn
cm
humidity
%
barometer
mb
20260508060017 6 68 1.6 6.4 0.00 0.00 0.00 63 1013.1
20260508053038 7 68 1.6 6.4 0.00 0.00 0.00 57 1013.1
20260508050017 7 0.0 6.4 0.00 0.00 0.00 54 1013.2
20260508043017 8 45 3.2 9.7 0.00 0.00 0.00 52 1013.3
20260508040017 8 45 1.6 8.0 0.00 0.00 0.00 51 1013.0
20260508033017 9 0 1.6 8.0 0.00 0.00 0.00 48 1012.6
20260508030017 10 0 1.6 11.3 0.00 0.00 0.00 48 1012.4
20260508023017 11 0.0 3.2 0.00 0.00 0.00 45 1012.0
20260508020017 12 0.0 3.2 0.00 0.00 0.00 43 1011.4
20260508013017 12 315 3.2 8.0 0.00 0.00 0.00 41 1011.0
20260508010137 13 315 3.2 8.0 0.00 0.00 0.00 40 1010.7
20260508003016 13 315 8.0 16.1 0.00 0.00 0.00 38 1010.5
20260508000017 15 315 9.7 16.1 0.00 0.00 0.00 37 1010.3
20260507233036 15 315 8.0 17.7 0.00 0.00 0.00 36 1010.2
20260507230016 15 315 8.0 19.3 0.00 0.00 0.00 39 1010.3
20260507223016 15 315 6.4 19.3 0.00 0.00 0.00 39 1010.3
20260507220016 15 315 4.8 11.3 0.00 0.00 0.00 43 1010.2
20260507213016 14 315 4.8 14.5 0.00 0.00 0.00 47 1010.3
20260507210016 14 293 6.4 17.7 0.00 0.00 0.00 47 1010.2
20260507203016 13 315 6.4 17.7 0.00 0.00 0.00 49 1010.5
20260507200016 12 315 8.0 20.9 0.00 0.00 0.00 55 1010.7
20260507193015 12 315 8.0 22.5 0.00 0.00 0.00 49 1011.2
20260507190017 12 315 6.4 25.7 0.00 0.00 0.00 50 1011.5
20260507183017 12 315 6.4 17.7 0.00 0.00 0.00 51 1011.8
20260507180038 12 293 4.8 14.5 0.00 0.00 0.00 47 1011.7
20260507173017 12 225 4.8 16.1 0.00 0.00 0.00 46 1012.2
20260507170017 12 180 6.4 22.5 0.00 0.00 0.00 47 1012.9
20260507163037 11 158 6.4 19.3 0.00 0.00 0.00 50 1013.5
20260507160017 10 225 6.4 16.1 0.00 0.00 0.00 50 1013.8
20260507153017 10 113 4.8 16.1 0.00 0.00 0.00 52 1013.9
20260507150017 9 203 4.8 12.9 0.00 0.00 0.00 53 1014.4
20260507143017 7 180 6.4 16.1 0.00 0.00 0.00 59 1014.9
20260507140017 6 225 6.4 14.5 0.00 0.00 0.00 65 1015.3
20260507133037 5 180 3.2 12.9 0.00 0.00 0.00 66 1015.5
20260507130057 3 203 1.6 4.8 0.00 0.00 0.00 70 1015.6
20260507123016 3 225 1.6 8.0 0.00 0.00 0.00 73 1015.8
20260507120036 2 225 4.8 8.0 0.00 0.00 0.00 75 1015.7
20260507113036 2 225 3.2 6.4 0.00 0.00 0.00 75 1015.4
20260507110016 1 225 4.8 6.4 0.00 0.00 0.00 76 1015.2
20260507103036 1 225 3.2 6.4 0.00 0.00 0.00 80 1015.3
20260507100016 1 225 3.2 8.0 0.00 0.00 0.00 81 1015.2
20260507093016 1 225 1.6 4.8 0.00 0.00 0.00 79 1015.4
20260507090016 1 225 1.6 4.8 0.00 0.00 0.00 77 1015.3
20260507083036 1 0.0 3.2 0.00 0.00 0.00 75 1015.4
20260507080016 2 0.0 0.0 0.00 0.00 0.00 72 1015.5
20260507073015 2 203 1.6 4.8 0.00 0.00 0.00 70 1015.6
20260507070016 2 0.0 0.0 0.00 0.00 0.00 66 1015.9
20260507063017 2 0.0 0.0 0.00 0.00 0.00 66 1016.1